TimeCDT,TemperatureF,Dew PointF,Humidity,Sea Level PressureIn,VisibilityMPH,Wind Direction,Wind SpeedMPH,Gust SpeedMPH,PrecipitationIn,Events,Conditions,WindDirDegrees,DateUTC
12:53 AM,39.9,37.9,93,29.88,10.0,Calm,Calm,-,N/A,,Clear,0,2012-10-20 05:53:00
1:53 AM,39.9,37.9,93,29.88,10.0,Calm,Calm,-,N/A,,Clear,0,2012-10-20 06:53:00
2:53 AM,39.0,37.9,96,29.88,9.0,Calm,Calm,-,N/A,,Clear,0,2012-10-20 07:53:00
3:53 AM,39.0,37.0,93,29.88,9.0,Calm,Calm,-,N/A,,Clear,0,2012-10-20 08:53:00
4:53 AM,37.9,36.0,93,29.88,9.0,Calm,Calm,-,N/A,,Clear,0,2012-10-20 09:53:00
5:53 AM,37.0,36.0,96,29.90,10.0,East,3.5,-,N/A,,Clear,90,2012-10-20 10:53:00
6:53 AM,37.0,36.0,96,29.90,10.0,Calm,Calm,-,N/A,,Clear,0,2012-10-20 11:53:00
7:53 AM,37.0,36.0,96,29.92,10.0,Calm,Calm,-,N/A,,Clear,0,2012-10-20 12:53:00
8:53 AM,45.0,42.1,90,29.93,10.0,Calm,Calm,-,N/A,,Clear,0,2012-10-20 13:53:00
9:53 AM,57.9,43.0,58,29.93,10.0,Calm,Calm,-,N/A,,Clear,0,2012-10-20 14:53:00
10:53 AM,68.0,42.1,39,29.91,10.0,Calm,Calm,-,N/A,,Clear,0,2012-10-20 15:53:00
11:53 AM,73.0,45.0,37,29.89,10.0,WSW,8.1,-,N/A,,Clear,250,2012-10-20 16:53:00
2:53 PM,82.9,46.9,28,29.79,10.0,WSW,10.4,16.1,N/A,,Clear,240,2012-10-20 19:53:00
3:53 PM,82.9,48.0,29,29.78,10.0,SSW,9.2,-,N/A,,Clear,210,2012-10-20 20:53:00
4:53 PM,82.9,48.9,31,29.78,10.0,South,8.1,-,N/A,,Clear,190,2012-10-20 21:53:00
5:53 PM,80.1,51.1,36,29.78,10.0,South,5.8,-,N/A,,Clear,170,2012-10-20 22:53:00
6:53 PM,75.0,51.1,43,29.78,10.0,SE,3.5,-,N/A,,Clear,140,2012-10-20 23:53:00
7:53 PM,70.0,52.0,53,29.80,10.0,SE,4.6,-,N/A,,Scattered Clouds,130,2012-10-21 00:53:00
8:53 PM,73.0,52.0,48,29.81,10.0,SSE,3.5,-,N/A,,Overcast,160,2012-10-21 01:53:00
9:53 PM,73.9,50.0,43,29.83,10.0,SSE,6.9,-,N/A,,Overcast,160,2012-10-21 02:53:00
10:53 PM,73.0,48.9,42,29.83,10.0,SSE,5.8,-,N/A,,Mostly Cloudy,160,2012-10-21 03:53:00
11:53 PM,71.1,48.0,44,29.83,10.0,South,5.8,-,N/A,,Scattered Clouds,170,2012-10-21 04:53:00